Weather History for KDAY - April, 2012

Change the Weather History Date:

Friday, April 20, 2012

  Actual Average Record
Temperature  
Mean Temperature 61 °F 53 °F  
Max Temperature 75 °F 64 °F 85 °F (1915)
Min Temperature 47 °F 43 °F 21 °F (1897)
Degree Days  
Heating Degree Days 4 12  
Month to date heating degree days 246 307  
Since 1 July heating degree days 4397 5346  
Cooling Degree Days 0 0  
Month to date cooling degree days 3 0  
Year to date cooling degree days 33 0  
Growing Degree Days 12 (Base 50)    
Moisture  
Dew Point 48 °F    
Average Humidity 67    
Maximum Humidity 93    
Minimum Humidity 41    
Precipitation  
Precipitation 0.44 in 0.14 in 1.68 in (1920)
Month to date precipitation 1.24 2.67  
Year to date precipitation 9.90 10.96  
Snow  
Snow 0.00 in 0.00 in 0.40 in (2013)
Month to date snowfall 0.0 0.6  
Since 1 July snowfall 9.2 23.3  
Snow Depth 0.00 in    
Sea Level Pressure  
Sea Level Pressure 29.80 in    
Wind  
Wind Speed 13 mph (SW)    
Max Wind Speed 25 mph    
Max Gust Speed 31 mph    
Visibility 9 miles    
Events Rain , Thunderstorm    
T = Trace of Precipitation, MM = Missing Value Source: NWS Daily Summary

Daily Weather History Graph

Daily Weather History Graph

Search for Another Location

Airport or City:

Trip Planner

Search our weather history database for the weather conditions in past years. The results will help you decide how hot, cold, wet, or windy it might be!

Date:

Astronomy

Apr. 20, 2012 Rise Set
Actual Time 6:51 AM EDT 8:20 PM EDT
Civil Twilight 6:22 AM EDT 8:49 PM EDT
Nautical Twilight 5:48 AM EDT 9:23 PM EDT
Astronomical Twilight 5:12 AM EDT 9:59 PM EDT
Moon 6:14 AM EDT (4/20) 8:04 PM EDT (4/20)
Length of Visible Light 14h 26m
Length of Day
13h 29m
Waning Crescent, 0% of the Moon is Illuminated
Apr 20
Waning Crescent
Apr 21
New
Apr 29
First Quarter
May 5
Full
May 12
Last Quarter

Hourly Weather History & Observations

Time (EDT) Temp. Dew Point Humidity Pressure Visibility Wind Dir Wind Speed Gust Speed Precip Events Conditions
12:56 AM 57.0 °F 41.0 °F 55% 29.91 in 10.0 mi SSE 6.9 mph - N/A   Mostly Cloudy
1:56 AM 55.0 °F 42.1 °F 62% 29.89 in 10.0 mi SSE 9.2 mph - N/A   Clear
2:56 AM 54.0 °F 42.1 °F 64% 29.87 in 10.0 mi SSE 9.2 mph - N/A   Partly Cloudy
3:56 AM 57.0 °F 42.1 °F 57% 29.84 in 10.0 mi SSE 10.4 mph - N/A   Mostly Cloudy
4:56 AM 54.0 °F 43.0 °F 66% 29.83 in 10.0 mi SSE 6.9 mph - N/A   Mostly Cloudy
5:56 AM 52.0 °F 43.0 °F 71% 29.83 in 10.0 mi SSE 5.8 mph - N/A   Mostly Cloudy
6:56 AM 55.4 °F 44.6 °F 67% 29.84 in 10.0 mi South 8.1 mph - N/A   Mostly Cloudy
7:56 AM 57.2 °F 44.6 °F 63% 29.83 in 10.0 mi South 11.5 mph - N/A   Mostly Cloudy
8:56 AM 61.0 °F 45.0 °F 56% 29.82 in 10.0 mi South 10.4 mph - N/A   Mostly Cloudy
9:56 AM 64.0 °F 46.9 °F 54% 29.81 in 10.0 mi SSW 13.8 mph - N/A   Scattered Clouds
10:56 AM 66.9 °F 48.0 °F 51% 29.80 in 10.0 mi SSW 12.7 mph - N/A   Mostly Cloudy
11:56 AM 71.1 °F 50.0 °F 47% 29.78 in 10.0 mi SW 19.6 mph 25.3 mph N/A   Mostly Cloudy
12:56 PM 71.6 °F 50.0 °F 46% 29.79 in 10.0 mi SW 15.0 mph 26.5 mph N/A   Mostly Cloudy
1:56 PM 73.9 °F 50.0 °F 43% 29.77 in 10.0 mi SSW 21.9 mph 27.6 mph N/A   Mostly Cloudy
2:56 PM 73.0 °F 48.9 °F 42% 29.76 in 10.0 mi SW 18.4 mph 25.3 mph N/A   Mostly Cloudy
3:56 PM 73.9 °F 48.0 °F 40% 29.74 in 10.0 mi SW 17.3 mph - N/A   Mostly Cloudy
4:56 PM 72.0 °F 48.0 °F 43% 29.73 in 10.0 mi SSW 13.8 mph - N/A   Mostly Cloudy
5:56 PM 72.0 °F 48.9 °F 44% 29.73 in 10.0 mi SSW 11.5 mph 20.7 mph N/A   Overcast
6:38 PM 64.4 °F 57.2 °F 77% 29.75 in 0.8 mi SW 16.1 mph 28.8 mph 0.25 in Rain , Thunderstorm Heavy Thunderstorms and Rain
6:45 PM 62.6 °F 59.0 °F 88% 29.75 in 2.0 mi SSW 12.7 mph - 0.29 in Rain , Thunderstorm Thunderstorms and Rain
6:48 PM 62.6 °F 59.0 °F 88% 29.75 in 3.0 mi SSW 10.4 mph - 0.29 in Rain Light Rain
6:56 PM 63.0 °F 55.9 °F 78% 29.74 in 5.0 mi SSW 9.2 mph - 0.30 in Rain Light Rain
7:56 PM 63.0 °F 55.0 °F 75% 29.73 in 10.0 mi NW 25.3 mph 31.1 mph 0.00 in   Overcast
8:04 PM 60.8 °F 53.6 °F 77% 29.75 in 10.0 mi NW 20.7 mph 31.1 mph N/A   Overcast
8:26 PM 59.0 °F 51.8 °F 77% 29.78 in 10.0 mi WNW 20.7 mph 25.3 mph N/A Thunderstorm Thunderstorm
8:49 PM 55.4 °F 51.8 °F 88% 29.79 in 8.0 mi NW 17.3 mph 21.9 mph 0.01 in Rain Light Rain
8:56 PM 55.9 °F 51.1 °F 84% 29.80 in 8.0 mi WNW 18.4 mph - 0.01 in Rain Light Rain
9:56 PM 52.0 °F 48.9 °F 89% 29.82 in 10.0 mi NW 13.8 mph 23.0 mph 0.00 in Rain Light Rain
10:09 PM 51.8 °F 48.2 °F 88% 29.83 in 10.0 mi North 16.1 mph 20.7 mph 0.00 in   Overcast
10:34 PM 50.0 °F 46.4 °F 87% 29.83 in 10.0 mi NNW 17.3 mph 21.9 mph 0.00 in Rain Light Rain
10:56 PM 48.9 °F 46.0 °F 90% 29.82 in 7.0 mi NNW 11.5 mph - 0.01 in Rain Rain
11:25 PM 48.2 °F 46.4 °F 93% 29.83 in 4.0 mi NW 9.2 mph - 0.04 in Rain Heavy Rain
11:40 PM 48.2 °F 46.4 °F 93% 29.83 in 3.0 mi NNW 11.5 mph - 0.08 in Rain Heavy Rain
11:56 PM 48.2 °F 46.4 °F 93% 29.84 in 10.0 mi NNW 12.7 mph - N/A Rain Light Rain